Location: Lombard
(41.8800°N, 88.0080°W)
Time: 18:41:11
(UTC-06:00)

Vanguard 3 - Pass Details

Date: 15 December 2023
Orbit: 508 x 3239 km, 33.4° (Epoch: 23 February)

Event Time Altitude Azimuth Distance (km) Brightness Sun altitude
Rises 21:39:37 0° 269° (W) 6,949 12.3 -57.6°
Reaches altitude 10° 21:44:50 10° 266° (W) 5,665 11.7 -58.5°
Enters shadow 21:53:02 32° 253° (WSW) 3,604 10.4 -59.8°
